Flag for Austria Weather past 2 weeks in Leoben, Styria, Austria

Now
73 °F

Scattered clouds.


Feels Like: 76 °F
Forecast: 56 / 81 °F
Wind: 7 mph from East

Location: Zeltweg

Current Time: Aug 1, 2014 at 12:56:09 PM

Latest Report: Aug 1, 2014 at 12:20 PM


Visibility: 19 mi

Pressure: 29.92 "Hg

Humidity: 61%

Dew point: 59 °F

Location of LeobenLocation

Historic Weather in Leoben — Graph

°F

Leoben temperature yesterday

Maximum temperature yesterday: 70 °F (at 1:50 PM)
Minimum temperature yesterday: 61 °F (at 4:50 AM)
Average temperature yesterday: 65 °F

Past Weeks' High & Low Weather Summary

 TemperatureHumidityPressure
High86 °F (Jul 20, 12:50 PM)100% (Jul 18, 5:50 AM)30.21 "Hg (Jul 18, 5:50 AM)
Low46 °F (Jul 24, 5:50 AM)32% (Jul 18, 6:50 PM)29.77 "Hg (Jul 29, 4:20 PM)
Average67 °F74%29.95 "Hg
* Reported Jul 17 11:20 AM — Aug 1 11:20 AM, Leoben, Weather by CustomWeather, © 2014

Note: Actual official high and low records may vary slightly from our data, if they occured in-between our weather recording intervals... More about our weather records

Advertising

Leoben weather history for previous 24 hours

 ConditionsComfort  
Time TempWeatherWind HumidityBarometerVisibility
11:20 AM
Aug 1
72 °FPartly sunny.1 mph65%29.95 "Hg19 mi
10:50 AM70 °FPartly sunny.1 mph64%29.95 "Hg16 mi
10:20 AM68 °FPartly sunny.3 mph78%29.95 "Hg12 mi
9:50 AM64 °FPartly sunny.1 mph83%29.95 "Hg9 mi
9:20 AM63 °FBroken clouds.1 mph88%29.95 "Hg9 mi
8:50 AM61 °FPartly sunny.2 mph94%29.95 "Hg4 mi
8:20 AM61 °FPartly sunny.2 mph94%29.95 "Hg4 mi
7:50 AM59 °FFog.1 mph100%29.95 "Hg3 mi
7:20 AM59 °FBroken clouds.1 mph100%29.98 "Hg1 mi
6:50 AM59 °FFog.1 mph100%29.98 "Hg0 mi
5:50 AM57 °FSleet. Passing clouds.2 mph100%29.98 "Hg1 mi
4:50 AM57 °FPassing clouds.2 mph100%29.98 "Hg12 mi
10:50 PM
Jul 31
63 °FPassing clouds.5 mph94%29.98 "Hg12 mi
9:50 PM64 °FPassing clouds.2 mph94%29.98 "Hg12 mi
8:50 PM64 °FBroken clouds.2 mph94%29.95 "Hg12 mi
7:50 PM66 °FPartly sunny.1 mph88%29.95 "Hg12 mi
6:50 PM66 °FPartly sunny.2 mph88%29.92 "Hg12 mi
5:50 PM66 °FSprinkles. Broken clouds.3 mph94%29.92 "Hg12 mi
4:50 PM70 °FScattered showers. Partly sunny.3 mph78%29.92 "Hg12 mi
4:20 PM70 °FPartly sunny.2 mph73%29.92 "Hg12 mi
3:50 PM70 °FPartly sunny.1 mph73%29.92 "Hg12 mi
3:20 PM70 °FPartly sunny.3 mph73%29.92 "Hg12 mi
2:50 PM70 °FBroken clouds.3 mph73%29.89 "Hg12 mi
2:20 PM70 °FScattered showers. Broken clouds.2 mph73%29.89 "Hg7 mi
1:50 PM70 °FScattered showers. Broken clouds.5 mph73%29.89 "Hg7 mi
1:20 PM68 °FScattered showers. Broken clouds.5 mph83%29.89 "Hg7 mi
12:50 PM66 °FScattered showers. Broken clouds.5 mph88%29.89 "Hg7 mi
12:20 PM66 °FSprinkles. Broken clouds.2 mph83%29.89 "Hg6 mi
Weather by CustomWeather, © 2014

See weather overviewHow to use our weather pages